• In Germany
  • List of Countries
  • For 7 days
  • Water Temperature
  • Satellite Maps
  • Weather Map
  • Weather Widgets
  • user-avatar
    Login

    Hourly Weather Ch'ŏngjin

    Today, 17 January, Wednesday

    Time Temperature Precipitation Wind Pressure Humidity
    00:00 -3°C° 0 mm 1 mps 764 mmHg 87%
    01:00 -4°C° 0.1 mm 2 mps 764 mmHg 87%
    02:00 -4°C° 0.1 mm 2 mps 764 mmHg 87%
    03:00 -4°C° 0 mm 2 mps 763 mmHg 89%
    04:00 -4°C° 0 mm 2 mps 764 mmHg 89%
    05:00 -4°C° 0 mm 2 mps 764 mmHg 89%
    06:00 -5°C° 0 mm 3 mps 764 mmHg 88%
    07:00 -4°C° 0.1 mm 3 mps 764 mmHg 87%
    08:00 -4°C° 0.1 mm 3 mps 764 mmHg 86%
    09:00 -2°C° 0.1 mm 3 mps 764 mmHg 85%
    10:00 -1°C° 0 mm 3 mps 763 mmHg 84%
    11:00 0°C° 0 mm 4 mps 762 mmHg 82%
    12:00 +1°C° 0 mm 4 mps 762 mmHg 80%
    13:00 +3°C° 0 mm 4 mps 761 mmHg 80%
    14:00 +3°C° 0 mm 4 mps 761 mmHg 80%
    15:00 +3°C° 0 mm 4 mps 760 mmHg 81%
    16:00 +1°C° 0 mm 4 mps 760 mmHg 85%
    17:00 0°C° 0 mm 4 mps 760 mmHg 89%
    18:00 -1°C° 0 mm 4 mps 760 mmHg 93%
    19:00 0°C° 0.1 mm 3 mps 760 mmHg 92%
    20:00 0°C° 0.1 mm 3 mps 760 mmHg 91%
    21:00 +1°C° 0.1 mm 2 mps 760 mmHg 90%
    22:00 -1°C° 0 mm 2 mps 760 mmHg 87%
    23:00 -1°C° 0 mm 3 mps 760 mmHg 84%

    Tomorrow, 18 January, Thursday

    Time Temperature Precipitation Wind Pressure Humidity
    00:00 -2°C° 0 mm 3 mps 760 mmHg 82%
    01:00 -2°C° 0 mm 3 mps 760 mmHg 81%
    02:00 -4°C° 0 mm 4 mps 761 mmHg 80%
    03:00 -4°C° 0 mm 4 mps 761 mmHg 79%
    04:00 -6°C° 0 mm 5 mps 761 mmHg 78%
    05:00 -7°C° 0 mm 5 mps 761 mmHg 77%
    06:00 -8°C° 0 mm 6 mps 762 mmHg 75%
    07:00 -8°C° 0 mm 6 mps 762 mmHg 70%
    08:00 -8°C° 0 mm 6 mps 763 mmHg 65%
    09:00 -8°C° 0 mm 6 mps 764 mmHg 60%
    10:00 -6°C° 0 mm 6 mps 764 mmHg 54%
    11:00 -5°C° 0 mm 5 mps 764 mmHg 49%
    12:00 -2°C° 0 mm 5 mps 764 mmHg 44%
    13:00 -2°C° 0 mm 5 mps 764 mmHg 44%
    14:00 -2°C° 0 mm 5 mps 764 mmHg 44%
    15:00 -2°C° 0 mm 5 mps 763 mmHg 45%
    16:00 -4°C° 0 mm 5 mps 764 mmHg 51%
    17:00 -5°C° 0 mm 4 mps 765 mmHg 58%
    18:00 -7°C° 0 mm 4 mps 766 mmHg 64%
    19:00 -8°C° 0 mm 4 mps 766 mmHg 65%
    20:00 -9°C° 0 mm 4 mps 767 mmHg 67%
    21:00 -8°C° 0 mm 3 mps 767 mmHg 68%
    22:00 -8°C° 0 mm 3 mps 767 mmHg 67%
    23:00 -9°C° 0 mm 3 mps 768 mmHg 67%

    Day after tomorrow, 19 January, Friday

    Time Temperature Precipitation Wind Pressure Humidity
    00:00 -9°C° 0 mm 3 mps 768 mmHg 66%
    01:00 -8°C° 0 mm 2 mps 768 mmHg 66%
    02:00 -8°C° 0 mm 2 mps 768 mmHg 66%
    03:00 -8°C° 0 mm 2 mps 768 mmHg 65%
    04:00 -8°C° 0 mm 2 mps 767 mmHg 64%
    05:00 -8°C° 0 mm 2 mps 767 mmHg 63%
    06:00 -8°C° 0 mm 2 mps 767 mmHg 62%
    07:00 -7°C° 0 mm 2 mps 767 mmHg 58%
    08:00 -7°C° 0 mm 2 mps 767 mmHg 55%
    09:00 -6°C° 0 mm 2 mps 767 mmHg 52%
    10:00 -4°C° 0 mm 2 mps 766 mmHg 47%
    11:00 -2°C° 0 mm 3 mps 765 mmHg 43%
    12:00 +1°C° 0 mm 3 mps 765 mmHg 39%
    13:00 +1°C° 0 mm 3 mps 764 mmHg 40%
    14:00 +1°C° 0 mm 3 mps 763 mmHg 40%
    15:00 +1°C° 0 mm 3 mps 762 mmHg 41%
    16:00 0°C° 0 mm 3 mps 763 mmHg 49%
    17:00 -2°C° 0 mm 2 mps 763 mmHg 57%
    18:00 -4°C° 0 mm 2 mps 763 mmHg 65%
    19:00 -4°C° 0 mm 2 mps 763 mmHg 65%
    20:00 -6°C° 0 mm 3 mps 764 mmHg 66%
    21:00 -7°C° 0 mm 3 mps 764 mmHg 66%
    22:00 -7°C° 0 mm 3 mps 764 mmHg 68%
    23:00 -8°C° 0 mm 4 mps 764 mmHg 69%

    20 January, Saturday

    Time Temperature Precipitation Wind Pressure Humidity
    00:00 -8°C° 0 mm 4 mps 764 mmHg 71%
    01:00 -9°C° 0 mm 4 mps 764 mmHg 72%
    02:00 -9°C° 0 mm 4 mps 765 mmHg 73%
    03:00 -8°C° 0 mm 3 mps 765 mmHg 73%
    04:00 -9°C° 0 mm 3 mps 765 mmHg 73%
    05:00 -9°C° 0 mm 3 mps 765 mmHg 74%
    06:00 -10°C° 0 mm 4 mps 765 mmHg 74%
    07:00 -10°C° 0 mm 4 mps 765 mmHg 71%
    08:00 -9°C° 0 mm 4 mps 765 mmHg 69%
    09:00 -9°C° 0 mm 4 mps 766 mmHg 66%
    10:00 -8°C° 0 mm 4 mps 766 mmHg 59%
    11:00 -6°C° 0 mm 5 mps 765 mmHg 51%
    12:00 -5°C° 0 mm 5 mps 765 mmHg 44%
    13:00 -5°C° 0 mm 5 mps 765 mmHg 43%
    14:00 -4°C° 0 mm 5 mps 765 mmHg 42%
    15:00 -4°C° 0 mm 5 mps 764 mmHg 41%
    16:00 -6°C° 0 mm 5 mps 765 mmHg 46%
    17:00 -7°C° 0 mm 4 mps 766 mmHg 50%
    18:00 -9°C° 0 mm 4 mps 766 mmHg 55%
    19:00 -9°C° 0 mm 4 mps 767 mmHg 57%
    20:00 -10°C° 0 mm 4 mps 767 mmHg 59%
    21:00 -12°C° 0 mm 5 mps 768 mmHg 62%
    22:00 -12°C° 0 mm 5 mps 768 mmHg 61%
    23:00 -12°C° 0 mm 5 mps 768 mmHg 60%

    21 January, Sunday

    Time Temperature Precipitation Wind Pressure Humidity
    00:00 -13°C° 0 mm 5 mps 768 mmHg 59%
    01:00 -13°C° 0 mm 5 mps 769 mmHg 58%
    02:00 -13°C° 0 mm 5 mps 769 mmHg 56%
    03:00 -13°C° 0 mm 5 mps 769 mmHg 55%
    04:00 -13°C° 0 mm 5 mps 769 mmHg 54%
    05:00 -13°C° 0 mm 5 mps 769 mmHg 54%
    06:00 -13°C° 0 mm 5 mps 769 mmHg 53%
    07:00 -13°C° 0 mm 5 mps 769 mmHg 52%
    08:00 -11°C° 0 mm 4 mps 770 mmHg 50%
    09:00 -11°C° 0 mm 4 mps 770 mmHg 49%
    10:00 -9°C° 0 mm 4 mps 769 mmHg 47%
    11:00 -7°C° 0 mm 4 mps 769 mmHg 46%
    12:00 -4°C° 0 mm 4 mps 768 mmHg 44%
    13:00 -5°C° 0.1 mm 4 mps 768 mmHg 53%
    14:00 -5°C° 0.1 mm 4 mps 767 mmHg 62%
    15:00 -5°C° 0.1 mm 4 mps 767 mmHg 71%
    16:00 -7°C° 0.2 mm 4 mps 767 mmHg 75%
    17:00 -7°C° 0.2 mm 3 mps 767 mmHg 80%
    18:00 -7°C° 0.2 mm 3 mps 767 mmHg 85%
    19:00 -7°C° 0.2 mm 3 mps 767 mmHg 86%
    20:00 -6°C° 0.2 mm 2 mps 767 mmHg 88%
    21:00 -6°C° 0.2 mm 2 mps 767 mmHg 90%
    22:00 -6°C° 0.3 mm 2 mps 767 mmHg 90%
    23:00 -6°C° 0.3 mm 2 mps 767 mmHg 90%

    22 January, Monday

    Time Temperature Precipitation Wind Pressure Humidity
    00:00 -6°C° 0.3 mm 2 mps 767 mmHg 90%
    01:00 -7°C° 0.2 mm 2 mps 766 mmHg 89%
    02:00 -7°C° 0.2 mm 2 mps 766 mmHg 88%
    03:00 -7°C° 0.2 mm 2 mps 766 mmHg 88%
    04:00 -9°C° 0.2 mm 3 mps 766 mmHg 87%
    05:00 -10°C° 0.2 mm 4 mps 766 mmHg 87%
    06:00 -10°C° 0.2 mm 4 mps 766 mmHg 87%
    07:00 -11°C° 0.1 mm 5 mps 766 mmHg 85%
    08:00 -11°C° 0.1 mm 5 mps 766 mmHg 84%
    09:00 -10°C° 0.1 mm 5 mps 766 mmHg 82%
    10:00 -10°C° 0 mm 5 mps 766 mmHg 78%
    11:00 -8°C° 0 mm 5 mps 766 mmHg 73%
    12:00 -7°C° 0 mm 5 mps 765 mmHg 69%
    13:00 -7°C° 0.1 mm 5 mps 765 mmHg 69%
    14:00 -7°C° 0.1 mm 5 mps 764 mmHg 69%
    15:00 -8°C° 0.1 mm 6 mps 764 mmHg 69%
    16:00 -9°C° 0.1 mm 6 mps 764 mmHg 73%
    17:00 -11°C° 0.1 mm 6 mps 764 mmHg 77%
    18:00 -12°C° 0.1 mm 6 mps 765 mmHg 80%
    19:00 -14°C° 0.1 mm 7 mps 765 mmHg 80%
    20:00 -15°C° 0.1 mm 7 mps 765 mmHg 80%
    21:00 -17°C° 0.1 mm 7 mps 766 mmHg 80%
    22:00 -18°C° 0.1 mm 7 mps 766 mmHg 79%
    23:00 -18°C° 0.1 mm 7 mps 766 mmHg 78%
    Show more